This is the latest recevied weather packets stored in our database for station/object DX2OHR-2. If no packets are shown the sender has not sent any weather packets the latest 10 day(s).
| Time | Temp. | Humidity | Pressure | Rain* | Wind** | Luminosity | Snow |
|---|---|---|---|---|---|---|---|
| 1787376004 | 11.11° C | 99% | 1010 hPa | 1.02 mm | - | 11 W/m² | - |
| 1787375703 | 11.11° C | 99% | 1010.3 hPa | 1.52 mm | - | 5 W/m² | - |
| 1787375404 | 11.11° C | 99% | 1010.1 hPa | 1.78 mm | - | 2 W/m² | - |
| 1787375105 | 11.11° C | 99% | 1010 hPa | 1.78 mm | - | 1 W/m² | - |
| 1787374805 | 11.11° C | 99% | 1009.8 hPa | 1.52 mm | - | 1 W/m² | - |
| 1787374504 | 11.67° C | 99% | 1009.7 hPa | 1.52 mm | - | 1 W/m² | - |
| 1787374203 | 11.67° C | 99% | 1009.7 hPa | 1.52 mm | - | 0 W/m² | - |
| 1787373904 | 12.22° C | 99% | 1009.6 hPa | 1.52 mm | - | 0 W/m² | - |
| 1787373603 | 12.22° C | 99% | 1009.4 hPa | 1.52 mm | - | 0 W/m² | - |
| 1787373303 | 12.22° C | 99% | 1009.1 hPa | 1.52 mm | - | 0 W/m² | - |
| 1787373003 | 12.22° C | 99% | 1009 hPa | 1.52 mm | - | 0 W/m² | - |
| 1787372703 | 12.22° C | 99% | 1009.1 hPa | 1.27 mm | - | 0 W/m² | - |
| 1787372404 | 12.22° C | 99% | 1008.9 hPa | 1.02 mm | - | 0 W/m² | - |
| 1787372103 | 12.22° C | 99% | 1008.8 hPa | 0.25 mm | - | 0 W/m² | - |
| 1787371803 | 12.22° C | 99% | 1008.8 hPa | 0 mm | - | 0 W/m² | - |
| 1787371504 | 12.22° C | 99% | 1008.7 hPa | 0 mm | - | 0 W/m² | - |
| 1787371205 | 12.22° C | 99% | 1008.6 hPa | 0 mm | - | 0 W/m² | - |
| 1787370904 | 12.22° C | 99% | 1008.5 hPa | 0 mm | - | 0 W/m² | - |
| 1787370605 | 12.22° C | 99% | 1008.6 hPa | 0 mm | - | 0 W/m² | - |
| 1787370304 | 12.22° C | 99% | 1008.7 hPa | 0 mm | - | 0 W/m² | - |
| 1787370005 | 12.22° C | 99% | 1008.7 hPa | 0 mm | - | 0 W/m² | - |
| 1787369704 | 12.22° C | 99% | 1008.7 hPa | 0 mm | - | 0 W/m² | - |
| 1787369404 | 12.22° C | 99% | 1008.9 hPa | 0 mm | - | 0 W/m² | - |
| 1787369103 | 12.78° C | 99% | 1008.5 hPa | 0 mm | - | 0 W/m² | - |
| 1787368804 | 12.78° C | 99% | 1008.7 hPa | 0 mm | - | 0 W/m² | - |
* Rain latest hour (hover to see other rain measurements)
** Current wind speed in m/s (hover to see current wind gust speed)